Flag for U.S.A. Weather past 2 weeks in Norwalk, California, U.S.A.

Now
65 °F

Clear.


Feels Like: 65 °F
Forecast: 55 / 85 °F
Wind: 7 mph from South

Location: Fullerton Municipal Airport

Current Time: Apr 26, 2015 at 10:01:35 PM

Latest Report: Apr 26, 2015 at 8:53 PM


Visibility: 10 mi

Pressure: 29.90 "Hg

Humidity: 56%

Dew point: 49 °F

Location of NorwalkLocation

Historic Weather in Norwalk — Graph

°F

Norwalk temperature yesterday

Maximum temperature yesterday: 66 °F (at 11:53 AM)
Minimum temperature yesterday: 57 °F (at 11:53 PM)
Average temperature yesterday: 62 °F

Past Weeks' High & Low Weather Summary

 TemperatureHumidityPressure
High85 °F (Apr 15, 2:53 PM)84% (Apr 12, 10:53 PM)30.09 "Hg (Apr 12, 10:53 PM)
Low53 °F (Apr 17, 5:53 AM)5% (Apr 16, 11:53 AM)29.82 "Hg (Apr 20, 5:53 PM)
Average65 °F54%29.94 "Hg
* Reported Apr 11 8:53 PM — Apr 26 8:53 PM, Norwalk, Weather by CustomWeather, © 2015

Note: Actual official high and low records may vary slightly from our data, if they occured in-between our weather recording intervals... More about our weather records

Advertising

Norwalk weather history for previous 24 hours

 ConditionsComfort  
Time TempWeatherWind HumidityBarometerVisibility
8:53 PM
Sun, Apr 26
65 °FClear.7 mph56%29.90 "Hg10 mi
7:53 PM66 °FSunny.6 mph52%29.89 "Hg10 mi
6:53 PM70 °FSunny.9 mph39%29.88 "Hg10 mi
5:53 PM73 °FSunny.7 mph36%29.88 "Hg10 mi
4:53 PM74 °FSunny.No wind28%29.90 "Hg10 mi
3:53 PM73 °FSunny.8 mph41%29.92 "Hg10 mi
2:53 PM74 °FSunny.9 mph37%29.94 "Hg10 mi
1:53 PM73 °FSunny.10 mph43%29.95 "Hg10 mi
12:53 PM72 °FSunny.9 mph46%29.96 "Hg10 mi
11:53 AM72 °FSunny.5 mph40%29.98 "Hg10 mi
10:53 AM69 °FSunny.3 mph45%29.99 "Hg10 mi
9:53 AM65 °FSunny.5 mph56%29.99 "Hg10 mi
8:53 AM62 °FSunny.6 mph65%29.99 "Hg10 mi
7:53 AM57 °FSunny.6 mph74%29.98 "Hg10 mi
6:53 AM53 °FClear.No wind83%29.96 "Hg10 mi
5:53 AM53 °FClear.3 mph80%29.95 "Hg10 mi
4:53 AM53 °FClear.5 mph83%29.93 "Hg10 mi
3:53 AM55 °FClear.3 mph80%29.92 "Hg10 mi
2:53 AM54 °FClear.3 mph83%29.90 "Hg10 mi
1:53 AM55 °FClear.5 mph80%29.91 "Hg10 mi
12:53 AM56 °FClear.3 mph75%29.91 "Hg10 mi
11:53 PM
Sat, Apr 25
57 °FClear.No wind72%29.91 "Hg10 mi
10:53 PM58 °FClear.No wind72%29.90 "Hg10 mi
Weather by CustomWeather, © 2015

See weather overviewHow to use our weather pages